www.pogodaiklimat.ru

Архив погоды в Брянске (Брянская область, Россия)

Время
(UTC), дата
00 11.06
03 11.06
06 11.06
09 11.06
12 11.06
15 11.06
18 11.06
21 11.06
00 12.06
03 12.06
06 12.06
09 12.06
12 12.06
15 12.06
18 12.06
21 12.06
00 13.06
03 13.06
06 13.06
09 13.06
12 13.06
15 13.06
18 13.06
21 13.06
00 14.06
03 14.06
06 14.06
09 14.06
12 14.06
15 14.06
18 14.06
21 14.06
00 15.06
03 15.06
06 15.06
09 15.06
12 15.06
15 15.06
18 15.06
21 15.06
00 16.06
03 16.06
06 16.06
09 16.06
12 16.06
15 16.06
18 16.06
21 16.06
00 17.06
03 17.06
06 17.06
09 17.06
12 17.06
15 17.06
18 17.06
21 17.06
Ветер
(напр.,м/с)
Видим. Явления Облачность Т
(С)
Тd
(С)
f
(%)
Тe
(С)
Тes
(С)
Комфортность P
(гПа)
Po
(гПа)
Тmin
(С)
Tmax
(С)
R
(мм)
R24
(мм)
S
(см)
Ю 1 10 км 8/0
[Ci fib]
+18.0 +16.0 88 +19 +19 тепло 1005.8 980.8
Ю 1 4000 м гроза, ливневой дождь 10/8 450 м
[Cb cap Ac und]
+17.4 +15.7 90 +18 +19 тепло 1005.0 980.0 +17.3 4
Ю 2 10 км {гроза, ливн. дождь} 8/0
[Ac trans Ci fib]
+21.1 +17.4 79 +25 +31 комфорт 1006.1 981.4 +17.3 4
ЮЗ 2 4000 м слаб. ливневой дождь 10/8 600 м
[Cb cap Ac und]
+22.3 +16.9 71 +27 +28 душно 1006.6 982.0
Ю 5-12 {12} 20 км {ливн. дождь} 10/8 600 м
[Cb cap Ac und]
+22.6 +15.4 64 +27 +27 душно 1007.5 982.9
Ю 2 {12} 20 км 8/0
[Ac trans]
+22.4 +16.5 69 +27 +29 душно 1007.5 982.9 0.6
СЗ 3 4000 м гроза, ливневой дождь 10/10 450 м
[Cb cap]
+20.0 +17.8 87 +23 +23 комфорт 1008.5 983.6 +23.5 2
СЗ 1 4000 м гроза без осадков {ливн. дождь} 9/6 500 м
[Cb cap Ac trans]
+18.4 +17.7 96 +20 +20 тепло 1008.8 983.8
Ю 1 4000 м дымка {гроза, ливн. дождь} 6/0
[Cs]
+18.0 +17.3 96 +19 +19 тепло 1008.5 983.5
В 1 4000 м дымка 9/9 800 м
[Sc]
+18.1 +17.5 96 +19 +20 тепло 1008.7 983.7 +16.5 14
ЮВ 2 10 км 9/5 840 м
[Sc Ac trans]
+21.3 +17.4 78 +25 +27 комфорт 1009.4 984.6 +16.5 13
ЮВ 3 10 км {ливн. дождь} 10/4 600 м
[Cb cap Ac und]
+22.0 +17.1 74 +26 +29 душно 1009.5 984.8
ЮВ 2 20 км {ливн. дождь} 8/4 600 м
[Sc Ac trans]
+24.1 +15.5 59 +27 +32 жарко 1008.2 983.7
В 3 20 км в посл. час гроза {ливн. дождь} 10/8 450 м
[Cb cap Ac und]
+21.8 +17.3 76 +26 +26 душно 1007.5 982.8 0.3
В 1 4000 м гроза, ливневой дождь 10/10 570 м
[Cb cap]
+16.5 +14.1 86 +17 +17 по сезону 1008.5 983.3 +25.7 3
С 2 4000 м в посл. час гроза {ливн. дождь} 10/10 600 м
[Cb cap]
+16.9 +15.8 93 +17 +17 тепло 1007.5 982.4
С 2 500 м туман, небо не видно {гроза, ливн. дождь} ?/? +17.0 +16.4 96 +17 +17 тепло 1007.4 982.4
С 2 500 м слаб. ливневой дождь {туман} туман ?/? +16.8 +16.2 96 +17 +17 тепло 1007.8 982.7 +16.0 8
СЗ 4 {10} 4000 м в посл. час гроза {ливн. дождь} 10/10 270 м
[Cb cap]
+15.8 +15.3 97 +15 +15 по сезону 1008.4 983.1 +15.8 26
СЗ 2 4000 м слаб. ливневой дождь 10/10 300 м
[Cb cap]
+15.2 +14.6 96 +15 +15 прохладно 1010.3 985.0
СЗ 4 {10} 4000 м в посл. час ливневой дождь 10/8 480 м
[Cb cap Ac und]
+15.0 +13.5 91 +14 +14 холодно 1012.1 986.7
СЗ 2 10 км 10/8 800 м
[Sc Ac und]
+17.1 +12.5 74 +17 +18 прохладно 1012.5 987.3 33
З 1 10 км 6/3 600 м
[Sc diur, vesp Ac trans]
+16.1 +13.0 82 +17 +17 по сезону 1013.1 987.8 +17.9 13
З 2 10 км ясно +14.7 +11.5 81 +14 +14 по сезону 1013.4 987.9
СЗ 1 4000 м дымка ясно +12.0 +10.0 88 +12 +12 по сезону 1013.1 987.3
С 2 4000 м дымка ясно +13.7 +11.0 84 +13 +14 по сезону 1013.5 987.9 +11.7
СВ 1 20 км 1/1 1000 м
[Cu hum]
+19.3 +13.0 67 +22 +31 комфорт 1013.5 988.4 +11.7
В 1 20 км 9/6 870 м
[Cu med, cong Ac trans Ci fib]
+20.8 +11.6 56 +24 +29 комфорт 1013.3 988.3
штиль 0 20 км 9/4 600 м
[Cu med, cong Ac trans Ci fib]
+23.2 +11.4 47 +25 +32 комфорт 1012.9 988.1
З 1 20 км 9/3 600 м
[Cu med, cong Ac trans Ci fib]
+22.3 +10.2 46 +24 +26 комфорт 1012.7 987.9
штиль 0 20 км 9/6 800 м
[Cu med, cong Ac trans Ci sp]
+20.9 +12.5 59 +23 +23 комфорт 1013.1 988.2 +24.2
штиль 0 10 км в посл. час ливневой дождь 10/8 540 м
[Cb cap Ac und]
+17.6 +14.6 83 +18 +18 тепло 1013.4 988.2
штиль 0 4000 м дымка {ливн. дождь} 6/0
[Ac trans]
+16.1 +14.1 88 +16 +16 тепло 1013.1 987.8
В 1 4000 м дымка 9/0
[Ac trans Ci fib]
+16.7 +15.3 91 +18 +18 тепло 1013.6 988.3 +15.1 0.0
В 2 20 км 8/0
[Ac trans]
+21.4 +14.1 63 +24 +29 комфорт 1013.3 988.4 +15.1 0.0
В 2 20 км 9/3 600 м
[Cu med, cong Ac trans Ci fib]
+22.4 +13.3 56 +25 +32 комфорт 1013.0 988.2
В 2 20 км 9/5 600 м
[Cu med, cong Ci fib]
+23.2 +12.7 52 +26 +32 жарко 1012.9 988.2
В 2 20 км 8/3 600 м
[Cu med, cong Ci fib]
+23.4 +12.9 52 +26 +29 жарко 1012.6 987.8
В 1 20 км 8/0
[Ac trans Ci fib]
+20.9 +13.3 62 +25 +25 комфорт 1013.6 988.6 +24.3
СВ 2 10 км 9/0
[Ac trans]
+19.0 +14.5 75 +21 +21 комфорт 1013.8 988.7
СВ 2 10 км 9/0
[Ac trans]
+17.9 +13.5 75 +18 +18 тепло 1013.7 988.5
СВ 2 10 км 9/9 840 м
[Sc]
+17.3 +13.5 78 +18 +18 тепло 1014.2 988.9 +17.2
СВ 3 10 км {ливн. дождь} 10/4 300 м
[Cb cap Ac und]
+18.8 +13.6 72 +20 +21 тепло 1014.2 989.0 +17.2 0.0
СВ 3 10 км 9/9 840 м
[Sc]
+21.2 +14.2 64 +24 +25 комфорт 1013.1 988.2
СВ 4 10 км 10/8 540 м
[Cb cap Ac und]
+21.3 +14.5 65 +24 +25 комфорт 1012.2 987.4
СВ 4 10 км {ливн. дождь} 9/6 570 м
[Cb cap Ac trans]
+22.0 +15.1 65 +26 +26 душно 1010.6 985.9 0.0
СВ 3 10 км {ливн. дождь} 8/0
[Ac trans]
+20.6 +15.3 72 +24 +24 комфорт 1010.0 985.1 +22.8 0.0
СВ 3 10 км 9/0
[Ac trans]
+19.3 +15.9 81 +21 +21 комфорт 1008.9 984.0
В 1 4000 м дымка {гроза, ливн. дождь} 10/10 630 м
[Cb cap]
+18.0 +16.6 92 +19 +19 тепло 1008.1 983.1
СВ 2 4000 м в посл. час ливневой дождь 10/10 600 м
[Cb cap]
+17.7 +16.8 94 +18 +18 тепло 1007.6 982.5 +17.7 5
В 1 4000 м дымка {ливн. дождь} 10/10 660 м
[Cb cap]
+18.7 +16.6 88 +21 +21 комфорт 1007.3 982.4 +17.7 5
ЮВ 1 10 км 10/10 960 м
[Sc]
+20.5 +17.2 81 +25 +25 комфорт 1007.2 982.4
ЮВ 1 10 км в посл. час ливневой дождь {гроза} 9/8 800 м
[Cb cap Ac trans]
+21.9 +18.1 79 +27 +29 душно 1006.4 981.7
Ю 1 10 км {ливн. дождь} 9/8 930 м
[Cb cap Ac trans]
+21.1 +17.9 82 +25 +26 комфорт 1006.4 981.7 5
З 1 10 км {ливн. дождь} 9/4 300 м
[Cb cap Ac trans Ci fib]
+18.7 +16.6 88 +21 +21 комфорт 1007.5 982.6 +22.7 5
З 2 4000 м дымка 8/0
[Ac trans]
+18.8 +16.9 89 +21 +21 комфорт 1008.0 983.1
Местоположение метеостанции Брянск (Брянская область, Россия): широта 53.25 долгота 34.32 высота над уровнем моря 216 м.
В архиве по умолчанию представлена погода в Брянске за последнюю неделю. Архивные данные за месяц целиком и за предыдущие месяцы, начиная с января 2011 года, Вы можете получить, выбрав интересующий диапазон дат из раскрывающегося списка и нажав кнопку "Найти!".
*Определитесь, кто Вы:
Внимание! Время в таблицах - всемирное. Для получения местного времени необходимо прибавить поправку, которая равна 3 ч.
Некоторые строки с данными для отдельных станций могут быть выделены курсивом. Это означает, что фактические данные отсутствуют по различным причинам, а приведенные значения являются расчетными модельными данными для данного пункта наблюдений.
Смотрите также архив погоды в соседних городах и на ближайших метеорологических станциях:
Партнеры нашего сайта:      
Пояснения к столбцам:
  • Ветер - указаны скорость ветра в м/с - средняя за 10 мин, порывы в срок и между сроками (в фигурных скобках) и направление, откуда дует ветер: С - северный,
  • СВ - северо-восточный, В - восточный, ЮВ - юго-восточный, Ю - южный, ЮЗ - юго-западный, З - западный, СЗ - северо-западный.
  • Видимость - горизонтальная дальность видимости в метрах или километрах. При видимости от 1 до 10 км при отсутствии осадков обычно наблюдается дымка, при ухудшении видимости до 1 км и менее - туман. В сухую погоду видимость может ухудшаться дымом, пылью или мглою.
  • Явления - указаны атмосферные явления, наблюдавшиеся в срок или в последний час перед сроком; фигурными скобками обозначены явления, наблюдавшиеся между сроками (за 1-3 часа до срока); квадратными скобками обозначены град или гололедные отложения с указанием их диаметра в мм.
  • Облачность - указаны через наклонную черту общая и нижняя облачность в баллах и высота нижней границы облаков в метрах; квадратными скобками обозначены формы облаков: Ci - перистые, Cs - перисто-слоистые, Cc - перисто-кучевые, Ac - высококучевые, As - высокослоистые, Sc - слоисто-кучевые, Ns - слоисто-дождевые, Cu - кучевые, Cb - кучево-дождевые. Подробнее классификацию облаков см. в Атласе облаков (PDF).
  • T - Температура воздуха - температура, измеренная на высоте 2 м над землей.
  • Td - Температура точки росы - температура, при понижении до которой содержащийся в воздухе водяной пар достигнет насыщения.
  • f - Относительная влажность воздуха - влажноcть воздуха, измеренная на высоте 2 м над землей.
  • Te - Эффективная температура - температура, которую ощущает одетый по сезону человек в тени. Характеристика душности погоды. При расчете учитывается влияние влажности воздуха и скорости ветра на теплоощущения человека.
  • Tes - Эффективная температура на солнце - температура, которую ощущает человек, с поправкой на солнечный нагрев. Характеристика знойности погоды. Зависит от высоты солнца над горизонтом, облачности и скорости ветра. Ночью, в пасмурную погоду, а также при ветре 12 м/с и более поправка равна нулю.
  • P - Атмосферное давление - приведенное к уровню моря атмосферное давление.
  • Po - Атмосферное давление - измеренное на уровне метеостанции атмосферное давление.
  • Tmin - Минимальная температура - минимум температуры воздуха на высоте 2 м над землей.
  • Tmax - Максимальная температура - максимум температуры воздуха на высоте 2 м над землей.
  • R - Количество осадков - Количество выпавших осадков за период времени, мм. При наведении курсора мыши на число - период времени, за который выпало указанное количество осадков.
  • R24 - Количество осадков - Количество выпавших осадков за 24 часа, мм.
  • S - Снежный покров - Высота снежного покрова, см. При наведении курсора мыши на число - состояние снежного покрова и степень покрытия местности в баллах.